CW2433 Weather Reports


Display with metric or nautical units.
time (UTC)temp
F
wind
direction
speed
MPH
gust
MPH
rain 1hr
in
rain 24hr
in
rain mn
in
humidity
%
barometer
mb
20260905163010 87 346 6.0 12.0 0.00 0.00 0.00 71 1015.2
20260905162509 87 320 5.0 14.0 0.00 0.00 0.00 72 1015.2
20260905162010 87 311 5.0 17.0 0.00 0.00 0.00 72 1015.2
20260905161510 87 342 9.0 17.0 0.00 0.00 0.00 72 1015.2
20260905160010 86 5 3.0 7.0 0.00 0.00 0.00 72 1014.7
20260905155510 86 340 3.0 6.0 0.00 0.00 0.00 72 1014.7
20260905155010 86 325 3.0 6.0 0.00 0.00 0.00 72 1014.6
20260905154510 85 330 3.0 5.0 0.00 0.00 0.00 72 1014.6
20260905154010 85 334 2.0 5.0 0.00 0.00 0.00 72 1014.6
20260905153510 85 23 2.0 5.0 0.00 0.00 0.00 72 1014.6
20260905152510 85 343 1.0 3.0 0.00 0.00 0.00 70 1014.4
20260905152010 85 38 1.0 3.0 0.00 0.00 0.00 71 1014.3
20260905151510 84 49 3.0 3.0 0.00 0.00 0.00 71 1014.3
20260905151010 84 45 1.0 2.0 0.00 0.00 0.00 72 1014.2
20260905150510 84 45 1.0 2.0 0.00 0.00 0.00 72 1014.2
20260905150010 83 152 0.0 3.0 0.00 0.00 0.00 74 1014.2
20260905145510 83 1 2.0 3.0 0.00 0.00 0.00 74 1014.0
20260905145010 82 0 2.0 3.0 0.00 0.00 0.00 75 1014.0
20260905144513 82 342 0.0 3.0 0.00 0.00 0.00 76 1014.0
20260905144010 82 342 1.0 3.0 0.00 0.00 0.00 76 1013.8
20260905143509 81 346 1.0 3.0 0.00 0.00 0.00 78 1013.7
20260905143009 81 69 0.0 3.0 0.00 0.00 0.00 79 1013.7
20260905142509 80 176 1.0 3.0 0.00 0.00 0.00 80 1013.6
20260905141509 79 0 1.0 3.0 0.00 0.00 0.00 83 1013.7
20260905141009 79 29 0.0 3.0 0.00 0.00 0.00 84 1013.7
20260905140509 78 57 1.0 3.0 0.00 0.00 0.00 85 1013.3
20260905140009 78 146 1.0 3.0 0.00 0.00 0.00 85 1013.2
20260905135509 77 127 1.0 3.0 0.00 0.00 0.00 85 1013.2
20260905135009 77 134 2.0 3.0 0.00 0.00 0.00 86 1013.2
20260905134009 76 317 0.0 3.0 0.00 0.00 0.00 87 1013.7
20260905133509 76 320 1.0 3.0 0.00 0.00 0.00 87 1013.8
20260905133009 76 124 1.0 2.0 0.00 0.00 0.00 88 1013.8
20260905132509 76 123 1.0 2.0 0.00 0.00 0.00 88 1013.6
20260905132009 75 124 1.0 2.0 0.00 0.00 0.00 88 1013.4
20260905131510 75 123 0.0 0.0 0.00 0.00 0.00 88 1013.3
20260905131009 75 123 0.0 0.0 0.00 0.00 0.00 88 1013.2
20260905130008 75 134 0.0 0.0 0.00 0.00 0.00 87 1013.1
20260905125509 75 134 0.0 0.0 0.00 0.00 0.00 87 1013.1
20260905125009 75 134 0.0 0.0 0.00 0.00 0.00 87 1012.9
20260905124509 75 134 0.0 0.0 0.00 0.00 0.00 87 1012.9
20260905124009 75 134 0.0 0.0 0.00 0.00 0.00 87 1012.8
20260905123509 75 134 0.0 0.0 0.00 0.00 0.00 87 1012.8
20260905123009 75 134 0.0 0.0 0.00 0.00 0.00 87 1012.8
20260905122509 75 133 0.0 0.0 0.00 0.00 0.00 87 1012.7
20260905121009 75 134 0.0 0.0 0.00 0.00 0.00 87 1012.4
20260905120509 75 134 0.0 0.0 0.00 0.00 0.00 87 1012.3
20260905120010 75 134 0.0 0.0 0.00 0.00 0.00 87 1012.2
20260905115509 75 134 0.0 0.0 0.00 0.00 0.00 86 1012.1
20260905114510 75 134 0.0 0.0 0.00 0.00 0.00 86 1012.1
20260905114009 75 134 0.0 0.0 0.00 0.00 0.00 86 1012.4
20260905113509 75 134 0.0 0.0 0.00 0.00 0.00 86 1012.4
20260905113010 75 134 0.0 0.0 0.00 0.00 0.00 86 1012.3
20260905112509 75 134 0.0 0.0 0.00 0.00 0.00 86 1012.3
20260905112009 75 133 0.0 0.0 0.00 0.00 0.00 86 1012.2
20260905111510 75 134 0.0 1.0 0.00 0.00 0.00 86 1012.1
20260905111010 75 134 0.0 1.0 0.00 0.00 0.00 86 1012.2
20260905110009 76 134 0.0 0.0 0.00 0.00 0.00 86 1012.0
20260905105010 76 134 0.0 0.0 0.00 0.00 0.00 86 1012.1
20260905104510 76 134 0.0 0.0 0.00 0.00 0.00 86 1012.0
20260905104010 76 134 0.0 0.0 0.00 0.00 0.00 86 1011.9
20260905103509 76 134 0.0 0.0 0.00 0.00 0.00 86 1011.7
20260905103010 76 134 0.0 0.0 0.00 0.00 0.00 86 1011.7
20260905102509 76 134 0.0 0.0 0.00 0.00 0.00 86 1011.7
20260905102010 76 134 0.0 0.0 0.00 0.00 0.00 86 1011.7
20260905101510 76 134 0.0 0.0 0.00 0.00 0.00 86 1011.7
20260905101010 76 134 0.0 0.0 0.00 0.00 0.00 86 1011.6
20260905100510 76 134 0.0 0.0 0.00 0.00 0.00 86 1011.6
20260905100010 76 134 0.0 0.0 0.00 0.00 0.00 86 1011.5
20260905095009 77 134 0.0 1.0 0.00 0.00 0.00 86 1011.4
20260905094509 77 134 0.0 2.0 0.00 0.00 0.00 86 1011.4
20260905094009 77 133 1.0 3.0 0.00 0.00 0.00 86 1011.4
20260905093508 77 134 0.0 3.0 0.00 0.00 0.00 86 1011.3
20260905092509 77 134 1.0 2.0 0.00 0.00 0.00 85 1011.2
20260905092009 77 133 0.0 1.0 0.00 0.00 0.00 85 1011.3
20260905091509 77 134 0.0 2.0 0.00 0.00 0.00 85 1011.2
20260905091009 77 134 0.0 2.0 0.00 0.00 0.00 85 1011.3
20260905090509 77 134 0.0 2.0 0.00 0.00 0.00 84 1011.4
20260905090009 77 133 0.0 2.0 0.00 0.00 0.00 84 1011.3
20260905085509 77 134 0.0 0.0 0.00 0.00 0.00 84 1011.3
20260905085009 77 134 0.0 0.0 0.00 0.00 0.00 84 1011.4
20260905084509 77 134 0.0 1.0 0.00 0.00 0.00 84 1011.4
20260905083509 78 134 0.0 2.0 0.00 0.00 0.00 84 1011.4
20260905083010 78 134 0.0 1.0 0.00 0.00 0.00 84 1011.4
20260905082509 78 134 0.0 2.0 0.00 0.00 0.00 84 1011.4
20260905082009 78 134 0.0 2.0 0.00 0.00 0.00 84 1011.5
20260905081510 78 134 0.0 1.0 0.00 0.00 0.00 84 1011.5
20260905081009 78 134 0.0 1.0 0.00 0.00 0.00 84 1011.6
20260905080010 78 134 0.0 0.0 0.00 0.00 0.00 84 1011.7
20260905075509 78 134 0.0 0.0 0.00 0.00 0.00 84 1011.8
20260905075009 79 134 0.0 0.0 0.00 0.00 0.00 83 1011.8
20260905074509 79 134 0.0 0.0 0.00 0.00 0.00 83 1011.9
20260905074009 79 134 0.0 0.0 0.00 0.00 0.00 83 1011.9
20260905073509 79 134 0.0 0.0 0.00 0.00 0.00 83 1011.9
20260905073010 79 134 0.0 0.0 0.00 0.00 0.00 83 1011.9
20260905072509 79 134 0.0 0.0 0.00 0.00 0.00 83 1011.9
20260905071510 79 134 0.0 0.0 0.00 0.00 0.00 83 1011.9
20260905071010 79 134 0.0 0.0 0.00 0.00 0.00 82 1011.9
20260905070509 79 134 0.0 0.0 0.00 0.00 0.00 82 1011.9
20260905065510 80 134 0.0 0.0 0.00 0.00 0.00 82 1012.0
20260905064510 80 134 0.0 0.0 0.00 0.00 0.00 81 1012.0
20260905064010 80 134 0.0 0.0 0.00 0.00 0.00 81 1012.0
20260905063510 80 133 0.0 0.0 0.00 0.00 0.00 81 1012.0
20260905063010 80 133 0.0 0.0 0.00 0.00 0.00 81 1012.1
20260905062510 80 134 0.0 0.0 0.00 0.00 0.00 81 1012.1
20260905062010 80 134 0.0 0.0 0.00 0.00 0.00 81 1012.2
20260905061510 81 133 0.0 1.0 0.00 0.00 0.00 81 1012.2
20260905061010 81 133 0.0 1.0 0.00 0.00 0.00 81 1012.1
20260905060510 81 133 0.0 0.0 0.00 0.00 0.00 80 1012.2
20260905060009 81 133 0.0 0.0 0.00 0.00 0.00 79 1012.2
20260905055010 81 123 0.0 0.0 0.00 0.00 0.00 79 1012.2
20260905054510 81 122 0.0 1.0 0.00 0.00 0.00 79 1012.2
20260905053010 82 123 0.0 1.0 0.00 0.00 0.00 78 1011.9
20260905052510 82 122 0.0 1.0 0.00 0.00 0.00 78 1011.8
20260905052010 82 123 0.0 0.0 0.00 0.00 0.00 78 1011.8
20260905051510 82 122 0.0 1.0 0.00 0.00 0.00 78 1011.9
20260905051010 83 123 0.0 2.0 0.00 0.00 0.00 78 1011.8
20260905050510 83 123 0.0 2.0 0.00 0.00 0.00 78 1011.9
20260905050010 83 122 0.0 1.0 0.00 0.00 0.00 77 1011.9
20260905045010 83 121 0.0 0.0 0.00 0.00 0.00 76 1011.8
20260905044510 83 118 0.0 0.0 0.00 0.00 0.00 76 1011.8
20260905044010 83 119 0.0 0.0 0.00 0.00 0.00 76 1011.7
20260905043509 84 120 0.0 0.0 0.00 0.00 0.00 76 1011.6
20260905043009 84 127 0.0 0.0 0.00 0.00 0.00 76 1011.5
20260905042009 84 131 0.0 0.0 0.00 0.00 0.00 76 1011.3
20260905041009 85 133 0.0 0.0 0.00 0.00 0.00 74 1011.3
20260905035509 85 133 0.0 1.0 0.00 0.00 0.00 74 1011.5
20260905035009 85 133 0.0 0.0 0.00 0.00 0.00 74 1011.5
20260905034509 86 133 0.0 0.0 0.00 0.00 0.00 74 1011.4
20260905034009 86 133 0.0 2.0 0.00 0.00 0.00 74 1011.4
20260905033509 86 133 0.0 2.0 0.00 0.00 0.00 74 1011.3
20260905033009 86 133 0.0 2.0 0.00 0.00 0.00 74 1011.3
20260905032509 86 133 0.0 2.0 0.00 0.00 0.00 74 1011.3
20260905032009 86 133 1.0 3.0 0.00 0.00 0.00 74 1011.3
20260905031510 86 130 1.0 3.0 0.00 0.00 0.00 74 1011.2
20260905031009 87 124 1.0 2.0 0.00 0.00 0.00 74 1011.1
20260905030509 87 142 1.0 3.0 0.00 0.00 0.00 74 1011.0
20260905030010 87 142 0.0 3.0 0.00 0.00 0.00 74 1011.0
20260905025509 87 142 1.0 3.0 0.00 0.00 0.00 74 1010.9
20260905024510 87 161 0.0 2.0 0.00 0.00 0.00 73 1010.8
20260905023509 87 160 0.0 2.0 0.00 0.00 0.00 73 1010.9
20260905023010 88 166 1.0 2.0 0.00 0.00 0.00 73 1010.9
20260905022009 88 126 0.0 0.0 0.00 0.00 0.00 71 1010.9
20260905021510 88 126 0.0 0.0 0.00 0.00 0.00 71 1010.9
20260905021009 89 126 0.0 0.0 0.00 0.00 0.00 71 1010.8
20260905020509 89 126 0.0 0.0 0.00 0.00 0.00 71 1010.8
20260905020009 89 126 0.0 0.0 0.00 0.00 0.00 70 1010.8
20260905015509 89 126 0.0 0.0 0.00 0.00 0.00 68 1010.7
20260905015009 89 126 0.0 0.0 0.00 0.00 0.00 67 1010.6
20260905014510 90 126 0.0 0.0 0.00 0.00 0.00 66 1010.6
20260905014009 90 126 0.0 1.0 0.00 0.00 0.00 66 1010.4
20260905013510 90 126 0.0 2.0 0.00 0.00 0.00 66 1010.4
20260905013010 90 126 0.0 2.0 0.00 0.00 0.00 66 1010.3
20260905012010 91 126 0.0 0.0 0.00 0.00 0.00 65 1010.3
20260905011510 91 126 0.0 0.0 0.00 0.00 0.00 64 1010.3
20260905011010 91 126 0.0 0.0 0.00 0.00 0.00 63 1010.3
20260905010510 92 126 0.0 2.0 0.00 0.00 0.00 63 1010.2
20260905005510 92 126 1.0 2.0 0.00 0.00 0.00 62 1010.2
20260905005010 93 126 0.0 1.0 0.00 0.00 0.00 62 1010.2
20260905004510 93 126 0.0 0.0 0.00 0.00 0.00 62 1010.3
20260905004010 93 126 0.0 3.0 0.00 0.00 0.00 62 1010.2
20260905003509 93 126 0.0 3.0 0.00 0.00 0.00 61 1010.0
20260905003010 93 126 1.0 3.0 0.00 0.00 0.00 61 1010.0
20260905002510 93 134 0.0 2.0 0.00 0.00 0.00 62 1010.0
20260905002010 93 175 0.0 2.0 0.00 0.00 0.00 61 1010.1
20260905001510 94 164 0.0 3.0 0.00 0.00 0.00 61 1010.0
20260905000509 94 143 1.0 3.0 0.00 0.00 0.00 61 1010.0
20260905000009 94 165 0.0 2.0 0.00 0.00 0.00 61 1010.0
20260904235509 94 165 0.0 2.0 0.00 0.00 0.00 60 1010.1
20260904235009 94 165 0.0 2.0 0.00 0.00 0.00 60 1010.0
20260904234509 94 165 1.0 3.0 0.00 0.00 0.00 60 1010.0
20260904234009 94 163 0.0 3.0 0.00 0.00 0.00 59 1010.1
20260904233509 94 208 0.0 3.0 0.00 0.00 0.00 59 1010.1
20260904233009 95 208 1.0 5.0 0.00 0.00 0.00 59 1010.2
20260904232509 95 155 0.0 5.0 0.00 0.00 0.00 59 1010.1
20260904232009 95 209 1.0 5.0 0.00 0.00 0.00 59 1010.1
20260904230509 95 185 1.0 3.0 0.00 0.00 0.00 59 1010.2
20260904230009 95 219 0.0 2.0 0.00 0.00 0.00 59 1010.1
20260904225509 95 218 1.0 5.0 0.00 0.00 0.00 59 1010.1
20260904224509 95 148 1.0 5.0 0.00 0.00 0.00 58 1010.1
20260904223509 95 215 1.0 3.0 0.00 0.00 0.00 57 1010.1
20260904223010 95 217 1.0 6.0 0.00 0.00 0.00 57 1010.1
20260904222510 95 182 1.0 6.0 0.00 0.00 0.00 55 1010.1
20260904222009 95 107 2.0 3.0 0.00 0.00 0.00 56 1010.1
20260904221510 95 207 2.0 3.0 0.00 0.00 0.00 56 1010.1
20260904221009 96 211 1.0 3.0 0.00 0.00 0.00 56 1010.0
20260904220509 96 174 1.0 3.0 0.00 0.00 0.00 55 1009.9
20260904220010 96 204 2.0 3.0 0.00 0.00 0.00 55 1009.9
20260904215509 96 207 2.0 3.0 0.00 0.00 0.00 54 1009.9
20260904214009 97 212 2.0 5.0 0.00 0.00 0.00 55 1009.8
20260904213509 97 192 2.0 5.0 0.00 0.00 0.00 55 1009.8
20260904213010 97 188 1.0 3.0 0.00 0.00 0.00 56 1009.8
20260904212509 97 216 1.0 3.0 0.00 0.00 0.00 55 1009.8
20260904211510 97 210 1.0 3.0 0.00 0.00 0.00 55 1009.8
20260904211009 97 138 2.0 3.0 0.00 0.00 0.00 54 1009.9
20260904210010 97 144 2.0 3.0 0.00 0.00 0.00 56 1009.8
20260904205510 97 229 1.0 3.0 0.00 0.00 0.00 57 1009.9
20260904205010 97 180 2.0 5.0 0.00 0.00 0.00 56 1009.8
20260904204510 96 215 2.0 5.0 0.00 0.00 0.00 56 1009.9
20260904204010 96 227 3.0 5.0 0.00 0.00 0.00 57 1009.9
20260904203510 96 184 1.0 6.0 0.00 0.00 0.00 57 1010.0
20260904203010 96 168 3.0 7.0 0.00 0.00 0.00 57 1010.0
20260904202510 96 158 2.0 7.0 0.00 0.00 0.00 57 1010.1
20260904200510 95 232 3.0 6.0 0.00 0.00 0.00 59 1010.2
20260904200010 95 117 2.0 6.0 0.00 0.00 0.00 59 1010.2
20260904195510 94 173 1.0 6.0 0.00 0.00 0.00 60 1010.2
20260904195010 94 207 2.0 6.0 0.00 0.00 0.00 59 1010.2
20260904194510 94 202 2.0 5.0 0.00 0.00 0.00 60 1010.2
20260904194010 94 222 1.0 5.0 0.00 0.00 0.00 60 1010.3
20260904193510 94 210 0.0 5.0 0.00 0.00 0.00 59 1010.3
20260904193010 94 209 3.0 5.0 0.00 0.00 0.00 59 1010.4
20260904192510 94 205 2.0 5.0 0.00 0.00 0.00 61 1010.4
20260904192010 94 132 1.0 5.0 0.00 0.00 0.00 59 1010.4
20260904191509 94 169 3.0 5.0 0.00 0.00 0.00 60 1010.4
20260904191009 94 215 2.0 5.0 0.00 0.00 0.00 60 1010.5
20260904190509 94 164 2.0 5.0 0.00 0.00 0.00 61 1010.5
20260904190009 93 209 3.0 6.0 0.00 0.00 0.00 61 1010.5
20260904185509 93 171 1.0 6.0 0.00 0.00 0.00 61 1010.6
20260904185009 93 223 2.0 9.0 0.00 0.00 0.00 62 1010.6
20260904184510 93 157 2.0 9.0 0.00 0.00 0.00 62 1010.7
20260904183509 93 179 1.0 6.0 0.00 0.00 0.00 62 1010.7
20260904183009 93 127 2.0 5.0 0.00 0.00 0.00 61 1010.7
20260904182509 93 196 2.0 5.0 0.00 0.00 0.00 61 1010.8
20260904182009 93 202 2.0 5.0 0.00 0.00 0.00 61 1010.8
20260904181509 93 186 1.0 3.0 0.00 0.00 0.00 59 1010.8
20260904180509 94 211 0.0 2.0 0.00 0.00 0.00 58 1010.7
20260904180010 94 211 1.0 2.0 0.00 0.00 0.00 58 1010.8
20260904175509 94 229 1.0 3.0 0.00 0.00 0.00 59 1010.8
20260904175009 94 296 1.0 3.0 0.00 0.00 0.00 60 1010.8
20260904174509 94 203 1.0 3.0 0.00 0.00 0.00 59 1010.8
20260904174009 94 205 1.0 5.0 0.00 0.00 0.00 60 1010.9
20260904173509 93 230 1.0 5.0 0.00 0.00 0.00 59 1010.9
20260904173010 93 172 2.0 5.0 0.00 0.00 0.00 61 1010.9
20260904172509 93 174 1.0 3.0 0.00 0.00 0.00 61 1011.0
20260904172009 93 240 2.0 3.0 0.00 0.00 0.00 61 1011.1
20260904171510 93 106 1.0 3.0 0.00 0.00 0.00 61 1011.0
20260904171009 92 122 1.0 3.0 0.00 0.00 0.00 62 1011.0
20260904170509 92 130 1.0 3.0 0.00 0.00 0.00 62 1011.0
20260904170010 92 125 1.0 3.0 0.00 0.00 0.00 62 1011.0
20260904165509 92 210 1.0 3.0 0.00 0.00 0.00 63 1011.0
20260904165010 91 160 1.0 3.0 0.00 0.00 0.00 63 1010.8
20260904164010 90 130 1.0 3.0 0.00 0.00 0.00 63 1011.0
20260904163509 90 187 2.0 3.0 0.00 0.00 0.00 65 1011.0